Flag for Germany Weather past 2 weeks in Duisburg, North Rhine-Westphalia, Germany

Now
75 °F

Broken clouds.


Feels Like: 77 °F
Forecast: 65 / 79 °F
Wind: 15 mph from West

Location: Duesseldorf

Current Time: Jul 28, 2014 at 3:13:52 PM

Latest Report: Jul 28, 2014 at 2:20 PM


Visibility: N/A

Pressure: 29.83 "Hg

Humidity: 61%

Dew point: 61 °F

Location of DuisburgLocation

Historic Weather in Duisburg — Graph

°F

Duisburg temperature yesterday

Maximum temperature yesterday: 79 °F (at 4:50 PM)
Minimum temperature yesterday: 63 °F (at 2:20 AM)
Average temperature yesterday: 70 °F

Past Weeks' High & Low Weather Summary

 TemperatureHumidityPressure
High93 °F (Jul 19, 3:50 PM)100% (Jul 16, 6:20 AM)30.18 "Hg (Jul 16, 6:20 AM)
Low55 °F (Jul 15, 1:50 AM)23% (Jul 19, 4:50 PM)29.74 "Hg (Jul 13, 3:50 PM)
Average71 °F70%29.97 "Hg
* Reported Jul 13 1:20 PM — Jul 28 1:50 PM, Duisburg, Weather by CustomWeather, © 2014

Note: Actual official high and low records may vary slightly from our data, if they occured in-between our weather recording intervals... More about our weather records

Advertising

Duisburg weather history for previous 24 hours

 ConditionsComfort  
Time TempWeatherWind HumidityBarometerVisibility
1:50 PM
Jul 28
81 °FBroken clouds.8 mph48%29.83 "HgN/A
1:20 PM82 °FScattered clouds.8 mph48%29.83 "HgN/A
12:50 PM81 °FPartly sunny.9 mph51%29.83 "HgN/A
12:20 PM79 °FPassing clouds.6 mph54%29.83 "HgN/A
11:50 AM79 °FPassing clouds.5 mph54%29.86 "HgN/A
11:20 AM77 °FPassing clouds.7 mph57%29.86 "HgN/A
10:50 AM77 °FPassing clouds.8 mph61%29.86 "HgN/A
10:20 AM75 °FPassing clouds.7 mph65%29.86 "HgN/A
9:50 AM73 °FSunny.6 mph69%29.86 "Hg10 mi
9:20 AM72 °FSunny.6 mph73%29.86 "Hg10 mi
8:50 AM72 °FSunny.6 mph73%29.89 "Hg10 mi
8:20 AM70 °FSunny.6 mph78%29.89 "Hg10 mi
7:50 AM68 °FSunny.3 mph83%29.89 "Hg10 mi
7:20 AM66 °FSunny.2 mph88%29.89 "Hg10 mi
6:50 AM66 °FSunny.3 mph88%29.89 "Hg10 mi
6:20 AM66 °FClear.2 mph83%29.89 "Hg10 mi
5:50 AM64 °FClear.3 mph88%29.89 "Hg10 mi
5:20 AM64 °FClear.5 mph88%29.89 "Hg10 mi
4:20 AM64 °FPassing clouds.5 mph88%29.92 "HgN/A
3:50 AM66 °FPassing clouds.2 mph83%29.92 "HgN/A
3:20 AM66 °FPassing clouds.1 mph83%29.92 "HgN/A
2:50 AM66 °FPassing clouds.2 mph88%29.92 "HgN/A
2:20 AM66 °FPartly cloudy.2 mph88%29.95 "HgN/A
1:50 AM66 °FPassing clouds.2 mph88%29.95 "HgN/A
1:20 AM64 °FClear.2 mph88%29.95 "Hg10 mi
12:50 AM66 °FClear.3 mph88%29.95 "Hg10 mi
12:20 AM66 °FClear.2 mph83%29.98 "Hg10 mi
11:50 PM
Jul 27
68 °FClear.1 mph83%29.98 "Hg10 mi
11:20 PM68 °FClear.2 mph83%29.95 "Hg10 mi
10:50 PM70 °FPassing clouds.3 mph78%29.98 "HgN/A
10:20 PM70 °FBroken clouds.3 mph78%29.98 "HgN/A
9:50 PM72 °FBroken clouds.3 mph73%29.98 "HgN/A
9:20 PM73 °FBroken clouds.2 mph69%29.98 "HgN/A
8:50 PM75 °FScattered clouds.No wind65%29.95 "HgN/A
8:20 PM77 °FScattered clouds.2 mph57%29.95 "HgN/A
7:50 PM77 °FPassing clouds.3 mph54%29.95 "HgN/A
7:20 PM79 °FPassing clouds.5 mph51%29.95 "HgN/A
6:50 PM79 °FPassing clouds.6 mph51%29.95 "HgN/A
6:20 PM79 °FPassing clouds.6 mph51%29.95 "HgN/A
5:50 PM79 °FScattered clouds.5 mph51%29.95 "HgN/A
5:20 PM79 °FPartly sunny.5 mph51%29.98 "HgN/A
4:50 PM79 °FPartly sunny.6 mph54%29.98 "HgN/A
4:20 PM77 °FPartly sunny.6 mph54%29.98 "HgN/A
3:50 PM77 °FPartly sunny.6 mph54%29.98 "HgN/A
3:20 PM77 °FPartly sunny.6 mph57%29.98 "HgN/A
Weather by CustomWeather, © 2014

See weather overviewHow to use our weather pages